TimeEET,TemperatureF,Dew PointF,Humidity,Sea Level PressureIn,VisibilityMPH,Wind Direction,Wind SpeedMPH,Gust SpeedMPH,PrecipitationIn,Events,Conditions,WindDirDegrees,DateUTC
4:50 AM,75.2,68.0,78,29.74,6.2,SSE,9.2,-,N/A,,Scattered Clouds,150,2012-10-29 02:50:00
5:50 AM,75.2,68.0,78,29.74,6.2,SSE,9.2,-,N/A,,Mostly Cloudy,150,2012-10-29 03:50:00
6:20 AM,75.2,68.0,78,29.68,6.2,SSE,12.7,-,N/A,,Mostly Cloudy,150,2012-10-29 04:20:00
6:50 AM,75.2,66.2,73,29.71,5.0,South,16.1,27.6,N/A,,Mostly Cloudy,170,2012-10-29 04:50:00
7:20 AM,75.2,66.2,73,29.68,5.0,SSE,13.8,-,N/A,,Scattered Clouds,160,2012-10-29 05:20:00
7:50 AM,77.0,66.2,69,29.71,5.0,South,12.7,-,N/A,Thunderstorm,Thunderstorm,170,2012-10-29 05:50:00
8:20 AM,77.0,69.8,78,29.71,3.1,South,16.1,-,N/A,,Mostly Cloudy,180,2012-10-29 06:20:00
8:50 AM,77.0,69.8,78,29.71,3.1,South,18.4,-,N/A,,Mostly Cloudy,170,2012-10-29 06:50:00
9:20 AM,77.0,69.8,78,29.71,2.5,South,19.6,-,N/A,,Mostly Cloudy,170,2012-10-29 07:20:00
9:50 AM,73.4,68.0,83,29.74,3.1,West,6.9,-,N/A,,Scattered Clouds,260,2012-10-29 07:50:00
10:20 AM,75.2,66.2,73,29.74,6.2,Calm,Calm,-,N/A,,Scattered Clouds,0,2012-10-29 08:20:00
10:50 AM,75.2,66.2,73,29.74,6.2,Calm,Calm,-,N/A,,Scattered Clouds,0,2012-10-29 08:50:00
11:20 AM,75.2,64.4,69,29.74,6.2,North,4.6,-,N/A,,Scattered Clouds,10,2012-10-29 09:20:00
11:50 AM,75.2,64.4,69,29.74,6.2,North,4.6,-,N/A,,Scattered Clouds,10,2012-10-29 09:50:00
12:20 PM,77.0,62.6,61,29.74,6.2,North,4.6,-,N/A,,Scattered Clouds,10,2012-10-29 10:20:00
12:50 PM,77.0,62.6,61,29.74,6.2,NNE,8.1,-,N/A,,Scattered Clouds,20,2012-10-29 10:50:00
1:20 PM,78.8,62.6,57,29.71,6.2,North,4.6,-,N/A,,Scattered Clouds,350,2012-10-29 11:20:00
1:50 PM,78.8,62.6,57,29.71,6.2,NNE,5.8,-,N/A,,Scattered Clouds,30,2012-10-29 11:50:00
2:20 PM,77.0,60.8,57,29.71,6.2,NNE,9.2,-,N/A,,Scattered Clouds,30,2012-10-29 12:20:00
2:50 PM,77.0,59.0,54,29.74,6.2,NNE,6.9,-,N/A,,Scattered Clouds,30,2012-10-29 12:50:00
3:20 PM,75.2,59.0,57,29.74,6.2,NW,6.9,-,N/A,,Scattered Clouds,320,2012-10-29 13:20:00
3:50 PM,71.6,60.8,69,29.74,6.2,North,8.1,-,N/A,,Scattered Clouds,360,2012-10-29 13:50:00
4:20 PM,73.4,60.8,65,29.74,6.2,NW,6.9,-,N/A,,Scattered Clouds,310,2012-10-29 14:20:00
4:50 PM,73.4,55.4,53,29.77,6.2,NNW,4.6,-,N/A,,Scattered Clouds,330,2012-10-29 14:50:00
5:20 PM,69.8,55.4,60,29.77,6.2,WNW,8.1,-,N/A,,Scattered Clouds,290,2012-10-29 15:20:00
5:50 PM,68.0,55.4,64,29.77,6.2,WNW,9.2,-,N/A,,Scattered Clouds,300,2012-10-29 15:50:00
6:20 PM,64.4,55.4,73,29.80,6.2,Calm,Calm,-,N/A,,Partly Cloudy,0,2012-10-29 16:20:00
6:50 PM,64.4,55.4,73,29.80,6.2,Calm,Calm,-,N/A,,Partly Cloudy,0,2012-10-29 16:50:00
7:20 PM,62.6,53.6,72,29.80,6.2,Calm,Calm,-,N/A,,Partly Cloudy,0,2012-10-29 17:20:00
7:50 PM,62.6,53.6,72,29.80,6.2,Calm,Calm,-,N/A,,Partly Cloudy,0,2012-10-29 17:50:00
10:50 PM,57.2,53.6,88,29.86,6.2,Calm,Calm,-,N/A,,Scattered Clouds,0,2012-10-29 20:50:00